• In Deutschland
  • Länderverzeichnis
  • Für 7 Tage
  • Wassertemperatur
  • Satellitenkarten
  • Wetterkarte
  • Widgets
  • user-avatar
    Anmelden

    Stündliche Wetter Impfondo

    Heute, 16 Januar, Dienstag

    Zeit Temperatur Niederschläge Wind Luftdruck Luftfeuchtigkeit
    00:00 +25°C° 0 mm 0 m/S 730 mmHg 44%
    01:00 +26°C° 0 mm 1 m/S 730 mmHg 45%
    02:00 +24°C° 0 mm 0 m/S 730 mmHg 46%
    03:00 +24°C° 0 mm 0 m/S 730 mmHg 48%
    04:00 +23°C° 0 mm 0 m/S 730 mmHg 49%
    05:00 +23°C° 0 mm 0 m/S 730 mmHg 50%
    06:00 +24°C° 0 mm 0 m/S 731 mmHg 50%
    07:00 +25°C° 0 mm 0 m/S 731 mmHg 50%
    08:00 +29°C° 0 mm 0 m/S 731 mmHg 42%
    09:00 +32°C° 0 mm 0 m/S 731 mmHg 34%
    10:00 +39°C° 0 mm 1 m/S 732 mmHg 26%
    11:00 +40°C° 0 mm 1 m/S 731 mmHg 22%
    12:00 +41°C° 0 mm 1 m/S 730 mmHg 19%
    13:00 +42°C° 0 mm 1 m/S 729 mmHg 16%
    14:00 +42°C° 0 mm 1 m/S 729 mmHg 16%
    15:00 +41°C° 0 mm 1 m/S 728 mmHg 16%
    16:00 +41°C° 0 mm 1 m/S 727 mmHg 16%
    17:00 +37°C° 0 mm 1 m/S 727 mmHg 19%
    18:00 +34°C° 0 mm 1 m/S 727 mmHg 23%
    19:00 +31°C° 0 mm 1 m/S 727 mmHg 26%
    20:00 +30°C° 0 mm 1 m/S 728 mmHg 27%
    21:00 +27°C° 0 mm 0 m/S 728 mmHg 27%
    22:00 +27°C° 0 mm 0 m/S 729 mmHg 28%
    23:00 +26°C° 0 mm 0 m/S 729 mmHg 29%

    Morgen, 17 Januar, Mittwoch

    Zeit Temperatur Niederschläge Wind Luftdruck Luftfeuchtigkeit
    00:00 +25°C° 0 mm 0 m/S 729 mmHg 31%
    01:00 +27°C° 0 mm 1 m/S 729 mmHg 32%
    02:00 +27°C° 0 mm 1 m/S 729 mmHg 33%
    03:00 +27°C° 0 mm 1 m/S 729 mmHg 35%
    04:00 +27°C° 0 mm 1 m/S 729 mmHg 36%
    05:00 +27°C° 0 mm 1 m/S 729 mmHg 37%
    06:00 +27°C° 0 mm 1 m/S 730 mmHg 38%
    07:00 +27°C° 0 mm 1 m/S 730 mmHg 39%
    08:00 +30°C° 0 mm 1 m/S 730 mmHg 34%
    09:00 +34°C° 0 mm 2 m/S 731 mmHg 29%
    10:00 +37°C° 0 mm 2 m/S 731 mmHg 24%
    11:00 +39°C° 0 mm 2 m/S 730 mmHg 21%
    12:00 +40°C° 0 mm 2 m/S 729 mmHg 18%
    13:00 +42°C° 0 mm 1 m/S 729 mmHg 14%
    14:00 +42°C° 0 mm 1 m/S 728 mmHg 14%
    15:00 +41°C° 0 mm 1 m/S 727 mmHg 13%
    16:00 +41°C° 0 mm 1 m/S 726 mmHg 13%
    17:00 +37°C° 0 mm 1 m/S 726 mmHg 16%
    18:00 +33°C° 0 mm 1 m/S 727 mmHg 19%
    19:00 +28°C° 0 mm 0 m/S 727 mmHg 22%
    20:00 +27°C° 0 mm 0 m/S 727 mmHg 24%
    21:00 +28°C° 0 mm 1 m/S 728 mmHg 26%
    22:00 +28°C° 0 mm 1 m/S 729 mmHg 28%
    23:00 +27°C° 0 mm 1 m/S 729 mmHg 34%

    übermorgen, 18 Januar, Donnerstag

    Zeit Temperatur Niederschläge Wind Luftdruck Luftfeuchtigkeit
    00:00 +26°C° 0 mm 1 m/S 728 mmHg 40%
    01:00 +25°C° 0 mm 1 m/S 728 mmHg 46%
    02:00 +25°C° 0 mm 1 m/S 729 mmHg 50%
    03:00 +24°C° 0 mm 1 m/S 729 mmHg 54%
    04:00 +24°C° 0 mm 1 m/S 729 mmHg 58%
    05:00 +25°C° 0 mm 1 m/S 730 mmHg 62%
    06:00 +25°C° 0 mm 1 m/S 731 mmHg 65%
    07:00 +26°C° 0 mm 2 m/S 731 mmHg 68%
    08:00 +28°C° 0 mm 2 m/S 732 mmHg 62%
    09:00 +30°C° 0 mm 2 m/S 732 mmHg 55%
    10:00 +34°C° 0 mm 2 m/S 732 mmHg 49%
    11:00 +35°C° 0 mm 2 m/S 731 mmHg 42%
    12:00 +37°C° 0 mm 2 m/S 730 mmHg 36%
    13:00 +38°C° 0 mm 2 m/S 730 mmHg 30%
    14:00 +38°C° 0 mm 2 m/S 729 mmHg 28%
    15:00 +39°C° 0 mm 1 m/S 728 mmHg 26%
    16:00 +39°C° 0 mm 1 m/S 727 mmHg 24%
    17:00 +35°C° 0 mm 1 m/S 728 mmHg 29%
    18:00 +33°C° 0 mm 1 m/S 728 mmHg 35%
    19:00 +30°C° 0 mm 1 m/S 728 mmHg 40%
    20:00 +29°C° 0 mm 1 m/S 729 mmHg 42%
    21:00 +29°C° 0 mm 1 m/S 729 mmHg 44%
    22:00 +28°C° 0 mm 1 m/S 730 mmHg 47%
    23:00 +27°C° 0 mm 1 m/S 729 mmHg 49%

    19 Januar, Freitag

    Zeit Temperatur Niederschläge Wind Luftdruck Luftfeuchtigkeit
    00:00 +27°C° 0 mm 1 m/S 729 mmHg 51%
    01:00 +26°C° 0 mm 1 m/S 729 mmHg 53%
    02:00 +26°C° 0 mm 1 m/S 729 mmHg 55%
    03:00 +25°C° 0 mm 1 m/S 729 mmHg 57%
    04:00 +25°C° 0 mm 1 m/S 729 mmHg 60%
    05:00 +25°C° 0 mm 1 m/S 730 mmHg 61%
    06:00 +26°C° 0 mm 1 m/S 730 mmHg 62%
    07:00 +26°C° 0 mm 1 m/S 731 mmHg 63%
    08:00 +29°C° 0 mm 2 m/S 731 mmHg 57%
    09:00 +31°C° 0 mm 2 m/S 732 mmHg 50%
    10:00 +35°C° 0 mm 2 m/S 732 mmHg 44%
    11:00 +35°C° 0 mm 2 m/S 731 mmHg 42%
    12:00 +35°C° 0 mm 1 m/S 730 mmHg 39%
    13:00 +35°C° 0 mm 1 m/S 729 mmHg 37%
    14:00 +35°C° 0 mm 1 m/S 728 mmHg 36%
    15:00 +36°C° 0 mm 1 m/S 728 mmHg 34%
    16:00 +36°C° 0 mm 1 m/S 727 mmHg 32%
    17:00 +34°C° 0 mm 1 m/S 728 mmHg 38%
    18:00 +32°C° 0 mm 1 m/S 728 mmHg 43%
    19:00 +30°C° 0 mm 1 m/S 729 mmHg 48%
    20:00 +29°C° 0 mm 1 m/S 729 mmHg 51%
    21:00 +28°C° 0 mm 1 m/S 730 mmHg 54%
    22:00 +27°C° 0 mm 1 m/S 730 mmHg 57%
    23:00 +27°C° 0 mm 1 m/S 730 mmHg 61%

    20 Januar, Samstag

    Zeit Temperatur Niederschläge Wind Luftdruck Luftfeuchtigkeit
    00:00 +26°C° 0 mm 1 m/S 729 mmHg 64%
    01:00 +26°C° 0 mm 1 m/S 729 mmHg 67%
    02:00 +25°C° 0 mm 1 m/S 729 mmHg 69%
    03:00 +25°C° 0 mm 1 m/S 729 mmHg 70%
    04:00 +25°C° 0 mm 1 m/S 729 mmHg 72%
    05:00 +25°C° 0 mm 1 m/S 729 mmHg 70%
    06:00 +26°C° 0 mm 1 m/S 730 mmHg 68%
    07:00 +26°C° 0 mm 1 m/S 731 mmHg 66%
    08:00 +29°C° 0 mm 1 m/S 731 mmHg 58%
    09:00 +32°C° 0 mm 2 m/S 731 mmHg 49%
    10:00 +36°C° 0 mm 2 m/S 731 mmHg 40%
    11:00 +38°C° 0 mm 2 m/S 730 mmHg 34%
    12:00 +41°C° 0 mm 1 m/S 729 mmHg 28%
    13:00 +43°C° 0 mm 1 m/S 728 mmHg 22%
    14:00 +38°C° 0 mm 0 m/S 728 mmHg 24%
    15:00 +36°C° 0 mm 0 m/S 728 mmHg 27%
    16:00 +34°C° 0 mm 0 m/S 727 mmHg 30%
    17:00 +32°C° 0 mm 0 m/S 727 mmHg 34%
    18:00 +30°C° 0 mm 0 m/S 728 mmHg 38%
    19:00 +28°C° 0 mm 0 m/S 728 mmHg 42%
    20:00 +27°C° 0 mm 0 m/S 728 mmHg 43%
    21:00 +27°C° 0 mm 0 m/S 729 mmHg 45%
    22:00 +26°C° 0 mm 0 m/S 729 mmHg 46%
    23:00 +26°C° 0 mm 0 m/S 729 mmHg 48%

    21 Januar, Sonntag

    Zeit Temperatur Niederschläge Wind Luftdruck Luftfeuchtigkeit
    00:00 +27°C° 0 mm 1 m/S 729 mmHg 49%
    01:00 +27°C° 0 mm 1 m/S 729 mmHg 50%
    02:00 +26°C° 0 mm 1 m/S 729 mmHg 52%
    03:00 +26°C° 0 mm 1 m/S 729 mmHg 54%
    04:00 +25°C° 0 mm 1 m/S 729 mmHg 56%
    05:00 +24°C° 0 mm 0 m/S 730 mmHg 57%
    06:00 +24°C° 0 mm 0 m/S 730 mmHg 58%
    07:00 +24°C° 0 mm 0 m/S 731 mmHg 58%
    08:00 +29°C° 0 mm 1 m/S 731 mmHg 52%
    09:00 +32°C° 0 mm 1 m/S 731 mmHg 45%
    10:00 +36°C° 0 mm 2 m/S 731 mmHg 38%
    11:00 +38°C° 0 mm 2 m/S 730 mmHg 34%
    12:00 +39°C° 0 mm 1 m/S 729 mmHg 31%
    13:00 +41°C° 0 mm 1 m/S 728 mmHg 27%
    14:00 +40°C° 0 mm 1 m/S 728 mmHg 27%
    15:00 +37°C° 0 mm 0 m/S 727 mmHg 28%
    16:00 +36°C° 0 mm 0 m/S 727 mmHg 28%
    17:00 +34°C° 0 mm 0 m/S 727 mmHg 33%
    18:00 +31°C° 0 mm 0 m/S 728 mmHg 38%
    19:00 +28°C° 0 mm 0 m/S 728 mmHg 43%
    20:00 +28°C° 0 mm 0 m/S 728 mmHg 44%
    21:00 +27°C° 0 mm 0 m/S 728 mmHg 46%
    22:00 +27°C° 0 mm 0 m/S 728 mmHg 48%
    23:00 +28°C° 0 mm 1 m/S 728 mmHg 51%
    Mehr zeigen